Location: Cañada de la Miga
(34.7595°N, 106.2317°W)
Time: 10:56:34
(UTC+00:00)

A-11 Canister half - Pass Details

Date: 04 December 2021
Orbit: 1516 x 1684 km, 47.2° (Epoch: 16 January)

Event Time Altitude Azimuth Distance (km) Brightness Sun altitude
Rises 10:58:44 0° 182° (S) 4,682 11.6 -35.9°
Reaches altitude 10° 11:02:52 10° 166° (SSE) 3,727 11.2 -35.0°
Maximum altitude 11:09:05 20° 124° (SE) 3,066 11.1 -33.8°
Drops below altitude 10° 11:15:26 10° 82° (E) 3,824 11.9 -32.5°
Sets 11:19:42 0° 67° (ENE) 4,844 12.4 -31.6°
